This demonstration page uses our WeatherBlox Daily Observations layout. Learn more.

Left ArrowRight Arrow

36.19886, -115.1175

Hourly Observations for August 16, 2021

Temp ( °F °C ) Dew Point ( °F °C ) Humidity (%) Winds ( mph kmh ) Pressure ( in mb ) Visibility ( mi km ) Precip ( " mm )
12:53 am 00:53 Clear 96 35.6 60 15.6 30 30 NNE 6 9 29.75 1007 10 16 0.00 0.00
1:53 am 01:53 Clear 94 34.4 62 16.7 35 35 E 10 17 29.76 1008 10 16 0.00 0.00
2:53 am 02:53 Clear 93 33.9 61 16.1 34 34 E 5 7 29.76 1008 10 16 0.00 0.00
3:53 am 03:53 Clear 91 32.8 62 16.7 38 38 NNE 7 11 29.77 1008 10 16 0.00 0.00
4:53 am 04:53 Clear 90 32.2 63 17.2 41 41 N 3 6 29.77 1008 10 16 0.00 0.00
5:53 am 05:53 Clear 89 31.7 64 17.8 43 43 NNE 7 11 29.79 1009 10 16 0.00 0.00
6:53 am 06:53 Sunny 89 31.7 63 17.2 42 42 NNE 5 7 29.80 1009 10 16 0.00 0.00
7:53 am 07:53 Sunny 91 32.8 64 17.8 41 41 E 10 17 29.81 1009 10 16 0.00 0.00
8:53 am 08:53 Sunny 92 33.3 64 17.8 40 40 E 7 11 29.81 1010 10 16 0.00 0.00
9:53 am 09:53 Sunny 95 35 63 17.2 35 35 ESE 5 7 29.81 1010 10 16 0.00 0.00
10:53 am 10:53 Sunny 97 36.1 63 17.2 33 33 SE 8 13 29.81 1009 10 16 0.00 0.00
11:53 am 11:53 Sunny 99 37.2 63 17.2 31 31 VRB 7 11 29.79 1009 10 16 0.00 0.00
12:53 pm 12:53 Sunny 100 37.8 61 16.1 28 28 VRB 3 6 29.76 1008 10 16 0.00 0.00
1:53 pm 13:53 Sunny 104 40 58 14.4 22 22 SE 6 9 29.73 1007 10 16 0.00 0.00
2:53 pm 14:53 Sunny 106 41.1 49 9.4 15 15 SSE 10 17 29.70 1006 10 16 0.00 0.00
3:53 pm 15:53 Sunny 107 41.7 46 7.8 13 13 SSE 7 11 29.67 1005 10 16 0.00 0.00
4:53 pm 16:53 Sunny 107 41.7 48 8.9 14 14 S 5 7 29.64 1004 10 16 0.00 0.00
5:53 pm 17:53 Sunny 106 41.1 51 10.6 16 16 SE 8 13 29.63 1003 10 16 0.00 0.00
6:53 pm 18:53 Sunny 105 40.6 55 12.8 19 19 ESE 10 17 29.62 1003 10 16 0.00 0.00
7:53 pm 19:53 Clear 103 39.4 60 15.6 24 24 ESE 8 13 29.63 1004 10 16 0.00 0.00
8:53 pm 20:53 Clear 102 38.9 58 14.4 23 23 SSE 13 20 29.64 1004 10 16 0.00 0.00
9:53 pm 21:53 Clear 100 37.8 58 14.4 25 25 ESE 7 11 29.65 1004 10 16 0.00 0.00
10:53 pm 22:53 Clear 99 37.2 57 13.9 25 25 S 12 19 29.65 1004 10 16 0.00 0.00
11:53 pm 23:53 Clear 98 36.7 58 14.4 26 26 S 10 17 29.65 1004 10 16 0.00 0.00

Powered by AerisWeather